This is the latest recevied weather packets stored in our database for station/object EB2EMZ-15. If no packets are shown the sender has not sent any weather packets the latest 10 day(s).
| Time | Temp. | Humidity | Pressure | Rain* | Wind** | Luminosity | Snow |
|---|---|---|---|---|---|---|---|
| 1777307106 | 18.33° C | 78% | 996.3 hPa | 0 mm | - | - | - |
| 1777306810 | 18.33° C | 78% | 996.4 hPa | 0 mm | - | - | - |
| 1777306507 | 17.78° C | 78% | 996.3 hPa | 0 mm | - | - | - |
| 1777306210 | 17.78° C | 77% | 996.2 hPa | 0 mm | - | - | - |
| 1777305908 | 17.78° C | 77% | 996.3 hPa | 0 mm | - | - | - |
| 1777305607 | 17.78° C | 77% | 996.3 hPa | 0 mm | - | - | - |
| 1777305307 | 17.78° C | 76% | 996.3 hPa | 0 mm | - | - | - |
| 1777305010 | 18.33° C | 76% | 996.3 hPa | 0 mm | - | - | - |
| 1777304707 | 18.33° C | 75% | 996.4 hPa | 0 mm | - | - | - |
| 1777304410 | 18.33° C | 74% | 996.4 hPa | 0 mm | - | - | - |
| 1777304107 | 18.33° C | 74% | 996.4 hPa | 0 mm | - | - | - |
| 1777303810 | 18.89° C | 73% | 996.4 hPa | 0 mm | - | - | - |
| 1777303507 | 18.89° C | 73% | 996.5 hPa | 0 mm | - | - | - |
| 1777303209 | 18.89° C | 73% | 996.6 hPa | 0 mm | - | - | - |
| 1777302907 | 18.89° C | 72% | 996.5 hPa | 0 mm | - | - | - |
| 1777302609 | 18.89° C | 72% | 996.7 hPa | 0 mm | - | - | - |
| 1777302307 | 18.89° C | 72% | 996.6 hPa | 0 mm | - | - | - |
| 1777302007 | 18.89° C | 71% | 996.8 hPa | 0 mm | - | - | - |
| 1777301707 | 18.89° C | 71% | 996.8 hPa | 0 mm | - | - | - |
| 1777301410 | 19.44° C | 71% | 996.9 hPa | 0 mm | - | - | - |
| 1777301107 | 19.44° C | 70% | 997 hPa | 0 mm | - | - | - |
| 1777300809 | 19.44° C | 70% | 997 hPa | 0 mm | - | - | - |
| 1777300506 | 20° C | 70% | 997.1 hPa | 0 mm | - | - | - |
| 1777300209 | 20° C | 69% | 997.2 hPa | 0 mm | - | - | - |
| 1777299907 | 20° C | 69% | 997.2 hPa | 0 mm | - | - | - |
* Rain latest hour (hover to see other rain measurements)
** Current wind speed in m/s (hover to see current wind gust speed)